weather.gov     
National Weather Service

Regional Weather Roundup
NWS Homepage
This page is being discontinued on March 12, 2014.
The same data is available at this site. Please update your bookmarks.
Thank you, and we apologize for the inconvenience.
Please send an email to SR-SRH.Webmaster@noaa.gov with any concerns.


Current Version
Previous Version:    01  02  03  04  05  06  07  08  09  10  11  12  13  14  15  16  17  18  19  20  21  22  23  24  25  26  27  28  29  30  
   31  32  33  34  35  36  37  38  39  40  41  42  43  44  45  46  47  48  49  50  51  52  53  54  55  56  57  58  59  60  
[Printable]
632
ASUS43 KLOT 221510
RWRIL

ILLINOIS REGIONAL WEATHER ROUNDUP
NATIONAL WEATHER SERVICE CHICAGO/ROMEOVILLE IL
900 AM CST MON DEC 22 2014

NOTE: "FAIR" INDICATES FEW OR NO CLOUDS BELOW 12,000 FEET WITH NO
SIGNIFICANT WEATHER AND/OR OBSTRUCTIONS TO VISIBILITY.

* THESE STATIONS ARE NOT UNDER NWS QUALITY CONTROL. THEY ALSO MAY NOT
  REPORT WEATHER SUCH AS PRECIPITATION OR FOG.

ILZ001-002-007-009-015-016-024-221600-
NORTHWEST ILLINOIS

CITY           SKY/WX    TMP DP  RH WIND       PRES   REMARKS
MOLINE         CLOUDY    37  31  78 E14       29.77F WCI  28
STERLING*      CLOUDY    34  28  80 E12       29.82F WCI  25
SAVANNA*       CLOUDY    36  31  82 E7        29.81S WCI  30
$$

ILZ003-004-008-010-011-017-018-221600-
NORTH CENTRAL ILLINOIS

CITY           SKY/WX    TMP DP  RH WIND       PRES   REMARKS
ROCKFORD       CLOUDY    33  29  85 E10       29.86F FOG     WCI  25
FREEPORT*      CLOUDY    33  31  92 E8        29.84F FOG     WCI  26
ROCHELLE*      CLOUDY    32  30  93 E12       29.85F FOG     WCI  23
DE KALB*       CLOUDY    31  28  86 SE12      29.86F FOG     WCI  22
PERU*          CLOUDY    34  30  85 SE14      29.85S FOG     WCI  25
$$

ILZ005-006-012>014-019>023-221600-
NORTHEAST ILLINOIS

CITY           SKY/WX    TMP DP  RH WIND       PRES   REMARKS
CHICAGO-OHARE  CLOUDY    33  27  78 SE10      29.90F WCI  25
CHICAGO-MIDWAY CLOUDY    34  28  79 SE12      29.90F WCI  25
AURORA         CLOUDY    34  27  75 E10       29.87F HAZE    WCI  26
LANSING*       CLOUDY    32  28  84 SE9       29.91S WCI  24
JOLIET*        CLOUDY    33  28  85 SE8       29.89F HAZE    WCI  25
WAUKEGAN       CLOUDY    34  30  85 E13       29.89F FOG     WCI  25
DUPAGE AIRPORT CLOUDY    33  27  78 E8        29.87F HAZE    WCI  26
KANKAKEE*      CLOUDY    33  30  88 E13       29.89F WCI  24
WHEELING       CLOUDY    33  28  81 SE5       29.91F HAZE    WCI  29
MORRIS*        CLOUDY    34  31  89 SE12      29.87F FOG     WCI  25
ROMEOVILLE*    CLOUDY    33  29  85 SE8       29.88F FOG     WCI  26
NORTHERLY ISL    N/A     33  29  85 SE12        N/A  WCI  24
$$

LMZ740>746-221600-
SOUTHERN LAKE MICHIGAN

STATION/POSITION SKY/WX   TEMP    WIND        PRES    VSBY  WAVE
                          AIR SEA DIR/SP/G                  HT/PER
                          (F)     (DEG/KT/KT) (MB)    (MI)  (FT/S)
WAUKEGAN HARBOR            34     140/ 15/ 17   N/A
HARRISON CRIB              33     140/ 13/ 17   N/A
BURNHAM HARBOR             33     120/ 11/ 12   N/A
CALUMET HARBOR             33     130/  7/ 11 1012.0R
$$

ILZ025>027-034>036-040-047-049-050-058-095>099-221600-
WEST-CENTRAL ILLINOIS

CITY           SKY/WX    TMP DP  RH WIND       PRES   REMARKS
QUINCY         LGT RAIN  37  35  92 SE13      29.69F FOG     WCI  29
GALESBURG*     DRIZZLE   36  32  87 E10       29.76F WCI  28
MACOMB*        LGT RAIN  36  34  92 SE14      29.76F WCI  27
JACKSONVILLE*  LGT RAIN  38  37  93 SE14      29.75F WCI  30
PITTSFIELD*    RAIN      39  37  93 SE12      29.72F WCI  32
$$

ILZ028>032-037-038-041>044-048-051>054-059>061-221600-
CENTRAL ILLINOIS

CITY           SKY/WX    TMP DP  RH WIND       PRES   REMARKS
PONTIAC        MIX PCPN  34  32  93 SE14      29.87S WCI  24
BLOOMINGTON    LGT RAIN  34  32  92 SE14      29.83F FOG     WCI  25
DECATUR        LGT RAIN  35  33  92 SE12      29.82F FOG     WCI  27
PEORIA         LGT RAIN  37  32  82 SE10      29.80F WCI  30
LACON*         LGT RAIN  34  30  86 SE9       29.83S WCI  27
LINCOLN*       RAIN      36  34  94 SE8       29.82F WCI  29
SPRINGFIELD    RAIN      37  34  89 E16       29.78F FOG     WCI  28
TAYLORVILLE    LGT RAIN  36  34  93 SE13      29.80S WCI  27
$$

ILZ033-039-045-046-055>057-062-063-221600-
EAST-CENTRAL ILLINOIS

CITY           SKY/WX    TMP DP  RH WIND       PRES   REMARKS
CHAMPAIGN      LGT RAIN  34  31  88 E16       29.85F FOG     WCI  24
DANVILLE*      CLOUDY    33  30  90 SE6       29.88R WCI  28
RANTOUL*       DRIZZLE   35  33  92 SE10      29.87S WCI  27
MATTOON        LGT RAIN  35  32  88 SE14      29.84F FOG     WCI  26
PARIS*         LGT RAIN  35  32  90 SE7       29.90S WCI  29
$$

ILZ079-100>102-221600-
SOUTHWEST ILLINOIS

CITY           SKY/WX    TMP DP  RH WIND       PRES   REMARKS
BELLEVILLE     LGT RAIN  41  41  99 SE15      29.76F FOG
CAHOKIA*       LGT RAIN  42  40  92 SE13G24   29.74F FOG
SPARTA*        DRIZZLE   41  39  92 SE9       29.78F
$$

ILZ064>066-069>071-074>076-080>082-084>086-088>090-092>094-221600-
SOUTH-CENTRAL ILLINOIS

CITY           SKY/WX    TMP DP  RH WIND       PRES   REMARKS
CARBONDALE     CLOUDY    46  42  86 S10       29.81F
CAIRO*         DRIZZLE   49  48  95 SE8       29.83F
EFFINGHAM*     CLOUDY    37  33  87 E12       29.86F FOG     WCI  29
MARION         CLOUDY    46  43  87 S12       29.83F FOG
MT. VERNON     CLOUDY    39  34  81 E6        29.84S WCI  35
CENTRALIA*     LGT RAIN  41  37  86 SE8       29.81F
SALEM*         CLOUDY    41  38  86 SE9       29.83S FOG
METROPOLIS*    LGT RAIN  48  46  93 SE5       29.84S
$$

ILZ067-068-072-073-078-083-087-091-221600-
SOUTHEAST ILLINOIS

CITY           SKY/WX    TMP DP  RH WIND       PRES   REMARKS
LAWRENCEVILLE  CLOUDY    40  36  86 SE12      29.90F FOG
FLORA*         CLOUDY    39  37  92 SE9       29.86F FOG     WCI  33
FAIRFIELD*     CLOUDY    41  38  86 SE6       29.85F
HARRISBURG*    CLOUDY    43  40  89 E6        29.86F
ROBINSON*      LGT RAIN  37  35  90 E8        29.90F WCI  31
CARMI*         CLOUDY    45  42  89 SE10      29.86F
$$

ABBREVIATIONS USED IN REMARKS
   TC - TEMPERATURE IN CELSIUS
  WCI - WIND CHILL INDEX
   HX - HEAT INDEX
  VSB - VISIBILITY
$$





U.S. Dept. of Commerce
NOAA National Weather Service
1325 East West Highway
Silver Spring, MD 20910
E-mail: w-nws.webmaster@noaa.gov
Page last modified: May 16, 2007
NATIONAL WEATHER SERVICE: for Safety, for Work, for Fun - FOR LIFE